Location: Monrovia
(34.7865°N, 86.7139°W)
Time: 22:01:11
(UTC+00:00)

Meteor 2-9 Rocket - Pass Details

Date: 14 July 2020
Orbit: 792 x 894 km, 81.3° (Epoch: 08 August)

Event Time Altitude Azimuth Distance (km) Brightness Sun altitude
Exits shadow 09:36:43 13° 204° (SSW) 2,117 5.8 -12.6°
Maximum altitude 09:41:16 56° 280° (W) 940 4.2 -11.8°
Drops below altitude 10° 09:46:31 10° 359° (N) 2,374 7.0 -11.0°
Sets 09:48:58 0° 4° (N) 3,316 7.9 -10.6°
